Year,Month,Day,Hour,Minute,Value (Times are PST for temperature in C)
2018,04,10,00,00,7.60
2018,04,10,00,01,7.60
2018,04,10,00,02,7.50
2018,04,10,00,03,7.50
2018,04,10,00,04,7.50
2018,04,10,00,05,7.50
2018,04,10,00,06,7.50
2018,04,10,00,07,7.50
2018,04,10,00,08,7.50
2018,04,10,00,09,7.40
2018,04,10,00,10,7.40
2018,04,10,00,11,7.40
2018,04,10,00,12,7.40
2018,04,10,00,13,7.40
2018,04,10,00,14,7.40
2018,04,10,00,15,7.40
2018,04,10,00,16,7.40
2018,04,10,00,17,7.40
2018,04,10,00,18,7.40
2018,04,10,00,19,7.40
2018,04,10,00,20,7.40
2018,04,10,00,21,7.40
2018,04,10,00,22,7.30
2018,04,10,00,23,7.30
2018,04,10,00,24,7.30
2018,04,10,00,25,7.30
2018,04,10,00,26,7.30
2018,04,10,00,27,7.30
2018,04,10,00,28,7.30
2018,04,10,00,29,7.30
2018,04,10,00,30,7.30
2018,04,10,00,31,7.30
2018,04,10,00,32,7.30
2018,04,10,00,33,7.30
2018,04,10,00,34,7.30
2018,04,10,00,35,7.30
2018,04,10,00,36,7.30
2018,04,10,00,37,7.30
2018,04,10,00,38,7.30
2018,04,10,00,39,7.30
2018,04,10,00,40,7.30
2018,04,10,00,41,7.30
2018,04,10,00,42,7.20
2018,04,10,00,43,7.20
2018,04,10,00,44,7.20
2018,04,10,00,45,7.20
2018,04,10,00,46,7.20
2018,04,10,00,47,7.20
2018,04,10,00,48,7.20
2018,04,10,00,49,7.20
2018,04,10,00,50,7.20
2018,04,10,00,51,7.20
2018,04,10,00,52,7.20
2018,04,10,00,53,7.20
2018,04,10,00,54,7.10
2018,04,10,00,55,7.10
2018,04,10,00,56,7.10
2018,04,10,00,57,7.10
2018,04,10,00,58,7.10
2018,04,10,00,59,7.10
2018,04,10,01,00,7.10
2018,04,10,01,01,7.10
2018,04,10,01,02,7.10
2018,04,10,01,03,7.10
2018,04,10,01,04,7.10
2018,04,10,01,05,7.10
2018,04,10,01,06,7.10
2018,04,10,01,07,7.10
2018,04,10,01,08,7.10
2018,04,10,01,09,7.10
2018,04,10,01,10,7.10
2018,04,10,01,11,7.10
2018,04,10,01,12,7.10
2018,04,10,01,13,7.00
2018,04,10,01,14,7.00
2018,04,10,01,15,7.00
2018,04,10,01,16,7.00
2018,04,10,01,17,6.90
2018,04,10,01,18,6.90
2018,04,10,01,19,6.90
2018,04,10,01,20,6.90
2018,04,10,01,21,6.90
2018,04,10,01,22,6.90
2018,04,10,01,23,6.90
2018,04,10,01,24,6.90
2018,04,10,01,25,6.90
2018,04,10,01,26,6.90
2018,04,10,01,27,6.90
2018,04,10,01,28,6.90
2018,04,10,01,29,6.90
2018,04,10,01,30,6.90
2018,04,10,01,31,6.90
2018,04,10,01,32,6.90
2018,04,10,01,33,6.90
2018,04,10,01,34,6.90
2018,04,10,01,35,6.90
2018,04,10,01,36,6.90
2018,04,10,01,37,6.80
2018,04,10,01,38,6.80
2018,04,10,01,39,6.80
2018,04,10,01,40,6.80
2018,04,10,01,41,6.80
2018,04,10,01,42,6.80
2018,04,10,01,43,6.80
2018,04,10,01,44,6.80
2018,04,10,01,45,6.80
2018,04,10,01,46,6.80
2018,04,10,01,47,6.80
2018,04,10,01,48,6.80
2018,04,10,01,49,6.70
2018,04,10,01,50,6.70
2018,04,10,01,51,6.70
2018,04,10,01,52,6.70
2018,04,10,01,53,6.70
2018,04,10,01,54,6.70
2018,04,10,01,55,6.70
2018,04,10,01,56,6.70
2018,04,10,01,57,6.70
2018,04,10,01,58,6.70
2018,04,10,01,59,6.70
2018,04,10,02,00,6.70
2018,04,10,02,01,6.70
2018,04,10,02,02,6.70
2018,04,10,02,03,6.70
2018,04,10,02,04,6.70
2018,04,10,02,05,6.70
2018,04,10,02,06,6.70
2018,04,10,02,07,6.80
2018,04,10,02,08,6.80
2018,04,10,02,09,6.80
2018,04,10,02,10,6.80
2018,04,10,02,11,6.80
2018,04,10,02,12,6.80
2018,04,10,02,13,6.80
2018,04,10,02,14,6.80
2018,04,10,02,15,6.80
2018,04,10,02,16,6.80
2018,04,10,02,17,6.80
2018,04,10,02,18,6.80
2018,04,10,02,19,6.80
2018,04,10,02,20,6.80
2018,04,10,02,21,6.80
2018,04,10,02,22,6.80
2018,04,10,02,23,6.80
2018,04,10,02,24,6.80
2018,04,10,02,25,6.80
2018,04,10,02,26,6.80
2018,04,10,02,27,6.80
2018,04,10,02,28,6.80
2018,04,10,02,29,6.80
2018,04,10,02,30,6.80
2018,04,10,02,31,6.80
2018,04,10,02,32,6.80
2018,04,10,02,33,6.80
2018,04,10,02,34,6.80
2018,04,10,02,35,6.80
2018,04,10,02,36,6.80
2018,04,10,02,37,6.80
2018,04,10,02,38,6.80
2018,04,10,02,39,6.80
2018,04,10,02,40,6.80
2018,04,10,02,41,6.80
2018,04,10,02,42,6.80
2018,04,10,02,43,6.80
2018,04,10,02,44,6.80
2018,04,10,02,45,6.80
2018,04,10,02,46,6.80
2018,04,10,02,47,6.80
2018,04,10,02,48,6.80
2018,04,10,02,49,6.80
2018,04,10,02,50,6.70
2018,04,10,02,51,6.70
2018,04,10,02,52,6.70
2018,04,10,02,53,6.70
2018,04,10,02,54,6.70
2018,04,10,02,55,6.70
2018,04,10,02,56,6.70
2018,04,10,02,57,6.70
2018,04,10,02,58,6.70
2018,04,10,02,59,6.70
2018,04,10,03,00,6.70
2018,04,10,03,01,6.70
2018,04,10,03,02,6.70
2018,04,10,03,06,6.70
2018,04,10,03,07,6.70
2018,04,10,03,08,6.70
2018,04,10,03,09,6.70
2018,04,10,03,10,6.70
2018,04,10,03,11,6.70
2018,04,10,03,12,6.70
2018,04,10,03,13,6.70
2018,04,10,03,14,6.70
2018,04,10,03,15,6.70
2018,04,10,03,16,6.70
2018,04,10,03,17,6.70
2018,04,10,03,18,6.70
2018,04,10,03,19,6.70
2018,04,10,03,20,6.70
2018,04,10,03,21,6.70
2018,04,10,03,22,6.70
2018,04,10,03,23,6.70
2018,04,10,03,24,6.70
2018,04,10,03,25,6.70
2018,04,10,03,26,6.70
2018,04,10,03,27,6.70
2018,04,10,03,28,6.70
2018,04,10,03,29,6.70
2018,04,10,03,30,6.70
2018,04,10,03,31,6.70
2018,04,10,03,32,6.70
2018,04,10,03,33,6.70
2018,04,10,03,34,6.70
2018,04,10,03,35,6.70
2018,04,10,03,36,6.70
2018,04,10,03,37,6.70
2018,04,10,03,38,6.70
2018,04,10,03,39,6.70
2018,04,10,03,40,6.70
2018,04,10,03,41,6.70
2018,04,10,03,42,6.70
2018,04,10,03,43,6.70
2018,04,10,03,44,6.70
2018,04,10,03,45,6.70
2018,04,10,03,46,6.70
2018,04,10,03,47,6.70
2018,04,10,03,48,6.70
2018,04,10,03,49,6.70
2018,04,10,03,50,6.70
2018,04,10,03,51,6.70
2018,04,10,03,52,6.70
2018,04,10,03,53,6.70
2018,04,10,03,54,6.70
2018,04,10,03,55,6.70
2018,04,10,03,56,6.70
2018,04,10,03,57,6.70
2018,04,10,03,58,6.70
2018,04,10,03,59,6.70
2018,04,10,04,00,6.70
2018,04,10,04,01,6.70
2018,04,10,04,02,6.70
2018,04,10,04,03,6.70
2018,04,10,04,04,6.70
2018,04,10,04,05,6.70
2018,04,10,04,06,6.70
2018,04,10,04,07,6.80
2018,04,10,04,08,6.80
2018,04,10,04,09,6.80
2018,04,10,04,10,6.80
2018,04,10,04,11,6.80
2018,04,10,04,12,6.80
2018,04,10,04,13,6.90
2018,04,10,04,14,6.90
2018,04,10,04,15,6.90
2018,04,10,04,16,6.90
2018,04,10,04,17,6.90
2018,04,10,04,18,6.90
2018,04,10,04,19,6.90
2018,04,10,04,20,6.90
2018,04,10,04,21,6.90
2018,04,10,04,22,6.90
2018,04,10,04,23,6.90
2018,04,10,04,24,6.90
2018,04,10,04,25,6.90
2018,04,10,04,26,6.90
2018,04,10,04,27,7.00
2018,04,10,04,28,7.00
2018,04,10,04,29,7.00
2018,04,10,04,30,7.00
2018,04,10,04,31,7.00
2018,04,10,04,32,7.00
2018,04,10,04,33,7.00
2018,04,10,04,34,7.10
2018,04,10,04,35,7.10
2018,04,10,04,36,7.10
2018,04,10,04,37,7.10
2018,04,10,04,38,7.10
2018,04,10,04,39,7.10
2018,04,10,04,40,7.10
2018,04,10,04,41,7.10
2018,04,10,04,42,7.10
2018,04,10,04,43,7.10
2018,04,10,04,44,7.10
2018,04,10,04,45,7.00
2018,04,10,04,46,7.10
2018,04,10,04,47,7.10
2018,04,10,04,48,7.00
2018,04,10,04,49,7.10
2018,04,10,04,50,7.00
2018,04,10,04,51,7.00
2018,04,10,04,52,7.00
2018,04,10,04,53,7.00
2018,04,10,04,54,7.00
2018,04,10,04,55,7.00
2018,04,10,04,56,7.00
2018,04,10,04,57,7.00
2018,04,10,04,58,7.00
2018,04,10,04,59,7.10
2018,04,10,05,00,7.10
2018,04,10,05,01,7.00
2018,04,10,05,02,7.10
2018,04,10,05,03,7.00
2018,04,10,05,04,7.00
2018,04,10,05,05,7.00
2018,04,10,05,06,7.00
2018,04,10,05,07,7.00
2018,04,10,05,08,7.00
2018,04,10,05,09,7.00
2018,04,10,05,10,7.00
2018,04,10,05,11,6.90
2018,04,10,05,12,6.90
2018,04,10,05,13,6.90
2018,04,10,05,14,6.90
2018,04,10,05,15,6.90
2018,04,10,05,16,6.90
2018,04,10,05,17,6.90
2018,04,10,05,18,6.90
2018,04,10,05,19,6.90
2018,04,10,05,20,6.90
2018,04,10,05,21,6.90
2018,04,10,05,22,6.90
2018,04,10,05,23,6.90
2018,04,10,05,24,6.90
2018,04,10,05,25,6.90
2018,04,10,05,26,6.90
2018,04,10,05,27,6.90
2018,04,10,05,28,6.90
2018,04,10,05,29,6.90
2018,04,10,05,30,6.90
2018,04,10,05,31,6.90
2018,04,10,05,32,6.90
2018,04,10,05,33,6.90
2018,04,10,05,34,6.90
2018,04,10,05,35,6.90
2018,04,10,05,36,6.80
2018,04,10,05,37,6.80
2018,04,10,05,38,6.80
2018,04,10,05,39,6.80
2018,04,10,05,40,6.80
2018,04,10,05,41,6.80
2018,04,10,05,42,6.80
2018,04,10,05,43,6.80
2018,04,10,05,44,6.80
2018,04,10,05,45,6.80
2018,04,10,05,46,6.80
2018,04,10,05,47,6.80
2018,04,10,05,48,6.80
2018,04,10,05,49,6.80
2018,04,10,05,50,6.80
2018,04,10,05,51,6.80
2018,04,10,05,52,6.90
2018,04,10,05,53,6.90
2018,04,10,05,54,6.90
2018,04,10,05,55,6.90
2018,04,10,05,56,6.90
2018,04,10,05,57,6.90
2018,04,10,05,58,6.90
2018,04,10,05,59,6.90
2018,04,10,06,00,6.90
2018,04,10,06,01,6.90
2018,04,10,06,02,7.00
2018,04,10,06,03,7.00
2018,04,10,06,04,7.00
2018,04,10,06,05,7.10
2018,04,10,06,06,7.10
2018,04,10,06,07,7.10
2018,04,10,06,08,7.10
2018,04,10,06,09,7.10
2018,04,10,06,10,7.20
2018,04,10,06,11,7.20
2018,04,10,06,12,7.20
2018,04,10,06,13,7.20
2018,04,10,06,14,7.20
2018,04,10,06,15,7.20
2018,04,10,06,16,7.20
2018,04,10,06,17,7.30
2018,04,10,06,18,7.30
2018,04,10,06,19,7.30
2018,04,10,06,20,7.30
2018,04,10,06,21,7.30
2018,04,10,06,22,7.30
2018,04,10,06,23,7.30
2018,04,10,06,24,7.30
2018,04,10,06,25,7.30
2018,04,10,06,26,7.30
2018,04,10,06,27,7.30
2018,04,10,06,28,7.30
2018,04,10,06,29,7.30
2018,04,10,06,30,7.40
2018,04,10,06,31,7.40
2018,04,10,06,32,7.40
2018,04,10,06,33,7.40
2018,04,10,06,34,7.40
2018,04,10,06,35,7.40
2018,04,10,06,36,7.40
2018,04,10,06,37,7.50
2018,04,10,06,38,7.50
2018,04,10,06,39,7.50
2018,04,10,06,40,7.50
2018,04,10,06,41,7.50
2018,04,10,06,42,7.50
2018,04,10,06,43,7.60
2018,04,10,06,44,7.60
2018,04,10,06,45,7.60
2018,04,10,06,46,7.60
2018,04,10,06,47,7.60
2018,04,10,06,48,7.60
2018,04,10,06,49,7.60
2018,04,10,06,50,7.60
2018,04,10,06,51,7.60
2018,04,10,06,52,7.60
2018,04,10,06,53,7.60
2018,04,10,06,54,7.60
2018,04,10,06,55,7.60
2018,04,10,06,56,7.60
2018,04,10,06,57,7.60
2018,04,10,06,58,7.60
2018,04,10,06,59,7.70
2018,04,10,07,00,7.70
2018,04,10,07,01,7.70
2018,04,10,07,02,7.70
2018,04,10,07,03,7.80
2018,04,10,07,04,7.80
2018,04,10,07,05,7.80
2018,04,10,07,06,7.80
2018,04,10,07,07,7.80
2018,04,10,07,08,7.80
2018,04,10,07,09,7.80
2018,04,10,07,10,7.80
2018,04,10,07,11,7.80
2018,04,10,07,12,7.80
2018,04,10,07,13,7.80
2018,04,10,07,14,7.80
2018,04,10,07,15,7.80
2018,04,10,07,16,7.80
2018,04,10,07,17,7.80
2018,04,10,07,18,7.80
2018,04,10,07,19,7.80
2018,04,10,07,20,7.80
2018,04,10,07,21,7.80
2018,04,10,07,22,7.70
2018,04,10,07,23,7.70
2018,04,10,07,24,7.80
2018,04,10,07,25,7.80
2018,04,10,07,26,7.80
2018,04,10,07,27,7.80
2018,04,10,07,28,7.80
2018,04,10,07,29,7.80
2018,04,10,07,30,7.80
2018,04,10,07,31,7.80
2018,04,10,07,32,7.80
2018,04,10,07,33,7.80
2018,04,10,07,34,7.80
2018,04,10,07,35,7.80
2018,04,10,07,36,7.80
2018,04,10,07,37,7.80
2018,04,10,07,38,7.80
2018,04,10,07,39,7.80
2018,04,10,07,40,7.80
2018,04,10,07,41,7.80
2018,04,10,07,42,7.80
2018,04,10,07,43,7.80
2018,04,10,07,44,7.80
2018,04,10,07,45,7.80
2018,04,10,07,46,7.80
2018,04,10,07,47,7.80
2018,04,10,07,48,7.80
2018,04,10,07,49,7.80
2018,04,10,07,50,7.80
2018,04,10,07,51,7.80
2018,04,10,07,52,7.80
2018,04,10,07,53,7.90
2018,04,10,07,54,7.90
2018,04,10,07,55,7.90
2018,04,10,07,56,7.90
2018,04,10,07,57,7.90
2018,04,10,07,58,7.90
2018,04,10,07,59,7.90
2018,04,10,08,00,7.80
2018,04,10,08,01,7.90
2018,04,10,08,02,7.80
2018,04,10,08,03,7.90
2018,04,10,08,04,7.90
2018,04,10,08,05,7.90
2018,04,10,08,06,7.90
2018,04,10,08,07,7.90
2018,04,10,08,08,7.90
2018,04,10,08,09,7.90
2018,04,10,08,10,7.90
2018,04,10,08,11,7.90
2018,04,10,08,12,7.90
2018,04,10,08,13,7.90
2018,04,10,08,14,8.00
2018,04,10,08,15,8.00
2018,04,10,08,16,8.00
2018,04,10,08,17,8.00
2018,04,10,08,18,8.00
2018,04,10,08,19,8.00
2018,04,10,08,20,8.00
2018,04,10,08,21,8.00
2018,04,10,08,22,8.00
2018,04,10,08,23,8.00
2018,04,10,08,24,8.00
2018,04,10,08,25,8.00
2018,04,10,08,26,8.00
2018,04,10,08,27,8.00
2018,04,10,08,28,8.00
2018,04,10,08,29,8.00
2018,04,10,08,30,7.90
2018,04,10,08,31,7.90
2018,04,10,08,32,8.00
2018,04,10,08,33,8.00
2018,04,10,08,34,8.00
2018,04,10,08,35,8.00
2018,04,10,08,36,8.00
2018,04,10,08,37,8.00
2018,04,10,08,38,8.10
2018,04,10,08,39,8.10
2018,04,10,08,40,8.10
2018,04,10,08,41,8.10
2018,04,10,08,42,8.10
2018,04,10,08,43,8.10
2018,04,10,08,44,8.10
2018,04,10,08,45,8.00
2018,04,10,08,46,8.00
2018,04,10,08,47,8.00
2018,04,10,08,48,8.00
2018,04,10,08,49,8.00
2018,04,10,08,50,8.00
2018,04,10,08,51,8.00
2018,04,10,08,52,8.00
2018,04,10,08,53,8.00
2018,04,10,08,54,8.10
2018,04,10,08,55,8.10
2018,04,10,08,56,8.10
2018,04,10,08,57,8.10
2018,04,10,08,58,8.10
2018,04,10,08,59,8.20
2018,04,10,09,00,8.20
2018,04,10,09,01,8.20
2018,04,10,09,02,8.20
2018,04,10,09,03,8.20
2018,04,10,09,04,8.20
2018,04,10,09,05,8.20
2018,04,10,09,06,8.30
2018,04,10,09,07,8.30
2018,04,10,09,08,8.30
2018,04,10,09,09,8.30
2018,04,10,09,10,8.30
2018,04,10,09,11,8.30
2018,04,10,09,12,8.30
2018,04,10,09,13,8.30
2018,04,10,09,14,8.30
2018,04,10,09,15,8.30
2018,04,10,09,16,8.30
2018,04,10,09,17,8.40
2018,04,10,09,18,8.40
2018,04,10,09,19,8.50
2018,04,10,09,20,8.50
2018,04,10,09,21,8.60
2018,04,10,09,22,8.70
2018,04,10,09,23,8.80
2018,04,10,09,24,8.90
2018,04,10,09,25,9.00
2018,04,10,09,26,9.10
2018,04,10,09,27,9.10
2018,04,10,09,28,9.10
2018,04,10,09,29,9.10
2018,04,10,09,30,9.10
2018,04,10,09,31,9.20
2018,04,10,09,32,9.20
2018,04,10,09,33,9.20
2018,04,10,09,34,9.30
2018,04,10,09,35,9.30
2018,04,10,09,36,9.40
2018,04,10,09,37,9.50
2018,04,10,09,38,9.60
2018,04,10,09,39,9.70
2018,04,10,09,40,9.80
2018,04,10,09,41,9.80
2018,04,10,09,42,9.90
2018,04,10,09,43,9.90
2018,04,10,09,44,10.00
2018,04,10,09,45,10.10
2018,04,10,09,46,10.10
2018,04,10,09,47,10.20
2018,04,10,09,48,10.20
2018,04,10,09,49,10.30
2018,04,10,09,50,10.30
2018,04,10,09,51,10.30
2018,04,10,09,52,10.40
2018,04,10,09,53,10.50
2018,04,10,09,54,10.60
2018,04,10,09,55,10.70
2018,04,10,09,56,10.70
2018,04,10,09,57,10.80
2018,04,10,09,58,10.80
2018,04,10,09,59,10.80
2018,04,10,10,00,10.80
2018,04,10,10,01,10.80
2018,04,10,10,02,10.80
2018,04,10,10,03,10.80
2018,04,10,10,04,10.80
2018,04,10,10,05,10.90
2018,04,10,10,06,10.90
2018,04,10,10,07,10.90
2018,04,10,10,08,10.90
2018,04,10,10,09,10.90
2018,04,10,10,10,10.90
2018,04,10,10,11,10.90
2018,04,10,10,12,10.90
2018,04,10,10,13,10.80
2018,04,10,10,14,10.80
2018,04,10,10,15,10.70
2018,04,10,10,16,10.80
2018,04,10,10,17,10.80
2018,04,10,10,18,10.80
2018,04,10,10,19,10.90
2018,04,10,10,20,10.90
2018,04,10,10,21,10.90
2018,04,10,10,22,10.90
2018,04,10,10,23,11.00
2018,04,10,10,24,11.00
2018,04,10,10,25,11.00
2018,04,10,10,26,11.00
2018,04,10,10,27,11.00
2018,04,10,10,28,11.10
2018,04,10,10,29,11.10
2018,04,10,10,30,11.20
2018,04,10,10,31,11.20
2018,04,10,10,32,11.20
2018,04,10,10,33,11.20
2018,04,10,10,34,11.20
2018,04,10,10,35,11.20
2018,04,10,10,36,11.30
2018,04,10,10,37,11.30
2018,04,10,10,38,11.40
2018,04,10,10,39,11.40
2018,04,10,10,40,11.50
2018,04,10,10,41,11.50
2018,04,10,10,42,11.60
2018,04,10,10,43,11.70
2018,04,10,10,44,11.90
2018,04,10,10,45,12.00
2018,04,10,10,46,12.10
2018,04,10,10,47,12.20
2018,04,10,10,48,12.30
2018,04,10,10,49,12.40
2018,04,10,10,50,12.50
2018,04,10,10,51,12.60
2018,04,10,10,52,12.70
2018,04,10,10,53,12.80
2018,04,10,10,54,12.80
2018,04,10,10,55,12.70
2018,04,10,10,56,12.60
2018,04,10,10,57,12.60
2018,04,10,10,58,12.60
2018,04,10,10,59,12.60
2018,04,10,11,00,12.60
2018,04,10,11,01,12.70
2018,04,10,11,02,12.80
2018,04,10,11,03,12.80
2018,04,10,11,04,12.80
2018,04,10,11,05,12.80
2018,04,10,11,06,12.80
2018,04,10,11,07,12.80
2018,04,10,11,08,12.90
2018,04,10,11,09,13.00
2018,04,10,11,10,13.20
2018,04,10,11,11,13.30
2018,04,10,11,12,13.40
2018,04,10,11,13,13.30
2018,04,10,11,14,13.30
2018,04,10,11,15,13.20
2018,04,10,11,16,13.10
2018,04,10,11,17,13.20
2018,04,10,11,18,13.20
2018,04,10,11,19,13.30
2018,04,10,11,20,13.30
2018,04,10,11,21,13.40
2018,04,10,11,22,13.40
2018,04,10,11,23,13.40
2018,04,10,11,24,13.30
2018,04,10,11,25,13.30
2018,04,10,11,26,13.30
2018,04,10,11,27,13.30
2018,04,10,11,28,13.30
2018,04,10,11,29,13.30
2018,04,10,11,30,13.30
2018,04,10,11,31,13.30
2018,04,10,11,32,13.30
2018,04,10,11,33,13.30
2018,04,10,11,34,13.40
2018,04,10,11,35,13.40
2018,04,10,11,36,13.50
2018,04,10,11,37,13.50
2018,04,10,11,38,13.40
2018,04,10,11,39,13.40
2018,04,10,11,40,13.40
2018,04,10,11,41,13.30
2018,04,10,11,42,13.30
2018,04,10,11,43,13.30
2018,04,10,11,44,13.30
2018,04,10,11,45,13.30
2018,04,10,11,46,13.30
2018,04,10,11,47,13.30
2018,04,10,11,48,13.40
2018,04,10,11,49,13.40
2018,04,10,11,50,13.30
2018,04,10,11,51,13.30
2018,04,10,11,52,13.30
2018,04,10,11,53,13.20
2018,04,10,11,54,13.20
2018,04,10,11,55,13.20
2018,04,10,11,56,13.20
2018,04,10,11,57,13.30
2018,04,10,11,58,13.30
2018,04,10,11,59,13.30
2018,04,10,12,00,13.40
2018,04,10,12,01,13.30
2018,04,10,12,02,13.30
2018,04,10,12,03,13.30
2018,04,10,12,04,13.20
2018,04,10,12,05,13.20
2018,04,10,12,06,13.30
2018,04,10,12,07,13.30
2018,04,10,12,08,13.30
2018,04,10,12,09,13.30
2018,04,10,12,10,13.30
2018,04,10,12,11,13.40
2018,04,10,12,12,13.40
2018,04,10,12,13,13.30
2018,04,10,12,14,13.20
2018,04,10,12,15,13.10
2018,04,10,12,16,13.00
2018,04,10,12,17,13.00
2018,04,10,12,18,13.00
2018,04,10,12,19,13.00
2018,04,10,12,20,13.00
2018,04,10,12,21,13.10
2018,04,10,12,22,13.20
2018,04,10,12,23,13.30
2018,04,10,12,24,13.40
2018,04,10,12,25,13.50
2018,04,10,12,26,13.50
2018,04,10,12,27,13.40
2018,04,10,12,28,13.40
2018,04,10,12,29,13.40
2018,04,10,12,30,13.40
2018,04,10,12,31,13.50
2018,04,10,12,32,13.60
2018,04,10,12,33,13.70
2018,04,10,12,34,13.80
2018,04,10,12,35,13.80
2018,04,10,12,36,13.80
2018,04,10,12,37,13.80
2018,04,10,12,38,13.90
2018,04,10,12,39,13.90
2018,04,10,12,40,13.90
2018,04,10,12,41,13.80
2018,04,10,12,42,13.80
2018,04,10,12,43,13.80
2018,04,10,12,44,13.80
2018,04,10,12,45,13.70
2018,04,10,12,46,13.70
2018,04,10,12,47,13.60
2018,04,10,12,48,13.60
2018,04,10,12,49,13.60
2018,04,10,12,50,13.70
2018,04,10,12,51,13.70
2018,04,10,12,52,13.70
2018,04,10,12,53,13.70
2018,04,10,12,54,13.60
2018,04,10,12,55,13.50
2018,04,10,12,56,13.40
2018,04,10,12,57,13.50
2018,04,10,12,58,13.60
2018,04,10,12,59,13.60
2018,04,10,13,00,13.60
2018,04,10,13,01,13.60
2018,04,10,13,02,13.60
2018,04,10,13,03,13.60
2018,04,10,13,04,13.60
2018,04,10,13,05,13.60
2018,04,10,13,06,13.70
2018,04,10,13,07,13.60
2018,04,10,13,08,13.50
2018,04,10,13,09,13.50
2018,04,10,13,10,13.50
2018,04,10,13,11,13.50
2018,04,10,13,12,13.50
2018,04,10,13,13,13.50
2018,04,10,13,14,13.60
2018,04,10,13,15,13.80
2018,04,10,13,16,13.90
2018,04,10,13,17,14.00
2018,04,10,13,18,14.00
2018,04,10,13,19,14.00
2018,04,10,13,20,14.00
2018,04,10,13,21,13.90
2018,04,10,13,22,13.90
2018,04,10,13,23,13.80
2018,04,10,13,24,13.80
2018,04,10,13,25,13.80
2018,04,10,13,26,13.80
2018,04,10,13,27,13.80
2018,04,10,13,28,13.90
2018,04,10,13,29,14.00
2018,04,10,13,30,14.10
2018,04,10,13,31,14.20
2018,04,10,13,32,14.30
2018,04,10,13,33,14.40
2018,04,10,13,34,14.50
2018,04,10,13,35,14.60
2018,04,10,13,36,14.50
2018,04,10,13,37,14.50
2018,04,10,13,38,14.50
2018,04,10,13,39,14.40
2018,04,10,13,40,14.40
2018,04,10,13,41,14.50
2018,04,10,13,42,14.50
2018,04,10,13,43,14.50
2018,04,10,13,44,14.60
2018,04,10,13,45,14.70
2018,04,10,13,46,14.80
2018,04,10,13,47,14.80
2018,04,10,13,48,14.80
2018,04,10,13,49,14.80
2018,04,10,13,50,14.90
2018,04,10,13,51,15.00
2018,04,10,13,52,15.00
2018,04,10,13,53,14.90
2018,04,10,13,54,14.90
2018,04,10,13,55,15.00
2018,04,10,13,56,15.00
2018,04,10,13,57,15.10
2018,04,10,13,58,15.10
2018,04,10,13,59,15.10
2018,04,10,14,00,15.00
2018,04,10,14,01,15.00
2018,04,10,14,02,14.90
2018,04,10,14,03,14.80
2018,04,10,14,04,14.80
2018,04,10,14,05,14.90
2018,04,10,14,06,14.90
2018,04,10,14,07,14.90
2018,04,10,14,08,14.90
2018,04,10,14,09,14.90
2018,04,10,14,10,14.80
2018,04,10,14,11,14.80
2018,04,10,14,12,14.90
2018,04,10,14,13,14.80
2018,04,10,14,14,14.80
2018,04,10,14,15,14.70
2018,04,10,14,16,14.60
2018,04,10,14,17,14.40
2018,04,10,14,18,14.30
2018,04,10,14,19,14.30
2018,04,10,14,20,14.30
2018,04,10,14,21,14.30
2018,04,10,14,22,14.30
2018,04,10,14,23,14.30
2018,04,10,14,24,14.20
2018,04,10,14,25,14.20
2018,04,10,14,26,14.30
2018,04,10,14,27,14.30
2018,04,10,14,28,14.40
2018,04,10,14,29,14.40
2018,04,10,14,30,14.60
2018,04,10,14,31,14.70
2018,04,10,14,32,14.80
2018,04,10,14,33,14.80
2018,04,10,14,34,14.70
2018,04,10,14,35,14.70
2018,04,10,14,36,14.70
2018,04,10,14,37,14.80
2018,04,10,14,38,14.70
2018,04,10,14,39,14.70
2018,04,10,14,40,14.70
2018,04,10,14,41,14.70
2018,04,10,14,42,14.60
2018,04,10,14,43,14.60
2018,04,10,14,44,14.60
2018,04,10,14,45,14.50
2018,04,10,14,46,14.50
2018,04,10,14,47,14.50
2018,04,10,14,48,14.50
2018,04,10,14,49,14.60
2018,04,10,14,50,14.50
2018,04,10,14,51,14.40
2018,04,10,14,52,14.30
2018,04,10,14,53,14.30
2018,04,10,14,54,14.30
2018,04,10,14,55,14.40
2018,04,10,14,56,14.40
2018,04,10,14,57,14.40
2018,04,10,14,58,14.50
2018,04,10,14,59,14.60
2018,04,10,15,00,14.70
2018,04,10,15,01,14.80
2018,04,10,15,02,14.90
2018,04,10,15,03,15.00
2018,04,10,15,04,15.00
2018,04,10,15,05,15.00
2018,04,10,15,06,14.90
2018,04,10,15,07,14.90
2018,04,10,15,08,14.70
2018,04,10,15,09,14.50
2018,04,10,15,10,14.50
2018,04,10,15,11,14.60
2018,04,10,15,12,14.70
2018,04,10,15,13,14.70
2018,04,10,15,14,14.80
2018,04,10,15,15,14.90
2018,04,10,15,16,15.00
2018,04,10,15,17,14.90
2018,04,10,15,18,14.90
2018,04,10,15,19,14.80
2018,04,10,15,20,14.70
2018,04,10,15,21,14.50
2018,04,10,15,22,14.30
2018,04,10,15,23,14.20
2018,04,10,15,24,14.30
2018,04,10,15,25,14.30
2018,04,10,15,26,14.30
2018,04,10,15,27,14.30
2018,04,10,15,28,14.30
2018,04,10,15,29,14.30
2018,04,10,15,30,14.30
2018,04,10,15,31,14.40
2018,04,10,15,32,14.30
2018,04,10,15,33,14.20
2018,04,10,15,34,14.20
2018,04,10,15,35,14.20
2018,04,10,15,36,14.30
2018,04,10,15,37,14.40
2018,04,10,15,38,14.40
2018,04,10,15,39,14.40
2018,04,10,15,40,14.20
2018,04,10,15,41,14.10
2018,04,10,15,42,14.10
2018,04,10,15,43,14.10
2018,04,10,15,44,14.10
2018,04,10,15,45,14.10
2018,04,10,15,46,14.20
2018,04,10,15,47,14.30
2018,04,10,15,48,14.30
2018,04,10,15,49,14.30
2018,04,10,15,50,14.40
2018,04,10,15,51,14.40
2018,04,10,15,52,14.40
2018,04,10,15,53,14.40
2018,04,10,15,54,14.50
2018,04,10,15,55,14.50
2018,04,10,15,56,14.40
2018,04,10,15,57,14.40
2018,04,10,15,58,14.40
2018,04,10,15,59,14.30
2018,04,10,16,00,14.20
2018,04,10,16,01,14.20
2018,04,10,16,02,14.20
2018,04,10,16,03,14.30
2018,04,10,16,04,14.30
2018,04,10,16,05,14.10
2018,04,10,16,06,14.10
2018,04,10,16,07,14.10
2018,04,10,16,08,14.10
2018,04,10,16,09,14.10
2018,04,10,16,10,14.10
2018,04,10,16,11,14.20
2018,04,10,16,12,14.10
2018,04,10,16,13,14.10
2018,04,10,16,14,14.20
2018,04,10,16,15,14.10
2018,04,10,16,16,14.10
2018,04,10,16,17,14.10
2018,04,10,16,18,14.10
2018,04,10,16,19,14.10
2018,04,10,16,20,14.20
2018,04,10,16,21,14.20
2018,04,10,16,22,14.20
2018,04,10,16,23,14.10
2018,04,10,16,24,14.10
2018,04,10,16,25,14.00
2018,04,10,16,26,14.00
2018,04,10,16,27,14.00
2018,04,10,16,28,13.90
2018,04,10,16,29,13.90
2018,04,10,16,30,13.90
2018,04,10,16,31,13.80
2018,04,10,16,32,13.80
2018,04,10,16,33,13.70
2018,04,10,16,34,13.60
2018,04,10,16,35,13.60
2018,04,10,16,36,13.70
2018,04,10,16,37,13.60
2018,04,10,16,38,13.60
2018,04,10,16,39,13.60
2018,04,10,16,40,13.60
2018,04,10,16,41,13.60
2018,04,10,16,42,13.60
2018,04,10,16,43,13.60
2018,04,10,16,44,13.70
2018,04,10,16,45,13.70
2018,04,10,16,46,13.80
2018,04,10,16,47,13.80
2018,04,10,16,48,13.80
2018,04,10,16,49,13.80
2018,04,10,16,50,13.80
2018,04,10,16,51,13.80
2018,04,10,16,52,13.90
2018,04,10,16,53,13.90
2018,04,10,16,54,14.00
2018,04,10,16,55,14.10
2018,04,10,16,56,14.10
2018,04,10,16,57,14.10
2018,04,10,16,58,14.10
2018,04,10,16,59,14.10
2018,04,10,17,00,14.00
2018,04,10,17,01,14.00
2018,04,10,17,02,13.90
2018,04,10,17,03,13.90
2018,04,10,17,04,13.80
2018,04,10,17,05,13.70
2018,04,10,17,06,13.70
2018,04,10,17,07,13.60
2018,04,10,17,08,13.60
2018,04,10,17,09,13.60
2018,04,10,17,10,13.60
2018,04,10,17,11,13.60
2018,04,10,17,12,13.60
2018,04,10,17,13,13.60
2018,04,10,17,14,13.60
2018,04,10,17,15,13.60
2018,04,10,17,16,13.60
2018,04,10,17,17,13.60
2018,04,10,17,18,13.60
2018,04,10,17,19,13.60
2018,04,10,17,20,13.70
2018,04,10,17,21,13.70
2018,04,10,17,22,13.80
2018,04,10,17,23,13.90
2018,04,10,17,24,13.90
2018,04,10,17,25,13.90
2018,04,10,17,26,13.90
2018,04,10,17,27,14.00
2018,04,10,17,28,14.00
2018,04,10,17,29,14.00
2018,04,10,17,30,14.00
2018,04,10,17,31,14.00
2018,04,10,17,32,14.00
2018,04,10,17,33,13.90
2018,04,10,17,34,13.80
2018,04,10,17,35,13.70
2018,04,10,17,36,13.60
2018,04,10,17,37,13.40
2018,04,10,17,38,13.20
2018,04,10,17,39,13.20
2018,04,10,17,40,13.10
2018,04,10,17,41,13.00
2018,04,10,17,42,12.90
2018,04,10,17,43,12.90
2018,04,10,17,44,12.90
2018,04,10,17,45,12.90
2018,04,10,17,46,12.90
2018,04,10,17,47,12.90